GLO1016 SBSP-SBRJ

Flight info

Callsign GLO1016
Flight time 0h 39m
Altitude 25000
Route NIBRU UZ171 KEVUN
Aircraft B738/M-SDE2E3FGHIRWXY/LB1

Departure

Time 2026-05-04 15:12
Airport Congonhas–Deputado Freitas Nobre Airport (SBSP)

Arrival

Time 2026-05-04 15:51
Airport Santos Dumont Airport (SBRJ)
Time Latitude Longitude Altitude Speed Heading
2026-05-04 15:08 -23.63335 -46.65329 2642 ft 11 kts 148°
2026-05-04 15:09 -23.63401 -46.65282 2642 ft 11 kts 147°
2026-05-04 15:09 -23.63462 -46.65240 2642 ft 9 kts 147°
2026-05-04 15:09 -23.63471 -46.65233 2641 ft 0 kts 147°
2026-05-04 15:10 -23.63472 -46.65233 2641 ft 1 kts 147°
2026-05-04 15:10 -23.63472 -46.65134 2637 ft 15 kts 37°
2026-05-04 15:11 -23.63381 -46.65152 2639 ft 14 kts 327°
2026-05-04 15:11 -23.63348 -46.65175 2641 ft 1 kts 327°
2026-05-04 15:11 -23.63301 -46.65207 2642 ft 35 kts 328°
2026-05-04 15:11 -23.62848 -46.65520 2625 ft 118 kts 327°
2026-05-04 15:12 -23.61940 -46.66118 2736 ft 175 kts 332°
2026-05-04 15:12 -23.60826 -46.66773 3612 ft 183 kts 332°
2026-05-04 15:12 -23.59681 -46.67376 4478 ft 195 kts 345°
2026-05-04 15:12 -23.58351 -46.67227 5242 ft 200 kts 30°
2026-05-04 15:13 -23.57361 -46.66047 5496 ft 230 kts 64°
2026-05-04 15:13 -23.57242 -46.64301 5656 ft 240 kts 106°
2026-05-04 15:13 -23.58111 -46.62755 5749 ft 247 kts 133°
2026-05-04 15:13 -23.59352 -46.61412 5770 ft 251 kts 134°
2026-05-04 15:14 -23.60340 -46.59846 5767 ft 259 kts 105°
2026-05-04 15:14 -23.60823 -46.57840 5762 ft 284 kts 103°
2026-05-04 15:14 -23.61132 -46.55725 5865 ft 282 kts 89°
2026-05-04 15:14 -23.61107 -46.53576 6353 ft 290 kts 85°
2026-05-04 15:15 -23.60999 -46.51343 7224 ft 293 kts 85°
2026-05-04 15:15 -23.60885 -46.49143 8103 ft 293 kts 85°
2026-05-04 15:15 -23.60776 -46.46893 8946 ft 297 kts 86°
2026-05-04 15:16 -23.60585 -46.42334 10509 ft 307 kts 88°
2026-05-04 15:16 -23.60495 -46.39913 10848 ft 330 kts 88°
2026-05-04 15:16 -23.60316 -46.34596 11549 ft 364 kts 88°
2026-05-04 15:17 -23.60226 -46.31829 12258 ft 368 kts 89°
2026-05-04 15:17 -23.60043 -46.26210 13656 ft 376 kts 89°
2026-05-04 15:17 -23.59949 -46.23322 14314 ft 381 kts 89°
2026-05-04 15:18 -23.59854 -46.20422 14913 ft 386 kts 89°
2026-05-04 15:18 -23.59760 -46.17493 15494 ft 391 kts 89°
2026-05-04 15:18 -23.59663 -46.14504 16089 ft 395 kts 89°
2026-05-04 15:19 -23.59464 -46.08465 17230 ft 405 kts 89°
2026-05-04 15:19 -23.59362 -46.05371 17809 ft 409 kts 89°
2026-05-04 15:19 -23.59152 -45.99140 18858 ft 417 kts 89°
2026-05-04 15:20 -23.59044 -45.95948 19348 ft 420 kts 89°
2026-05-04 15:20 -23.58936 -45.92784 19832 ft 424 kts 89°
2026-05-04 15:20 -23.58825 -45.89540 20330 ft 427 kts 89°
2026-05-04 15:20 -23.58714 -45.86324 20805 ft 430 kts 89°
2026-05-04 15:21 -23.58599 -45.83021 21269 ft 434 kts 89°
2026-05-04 15:21 -23.58485 -45.79753 21739 ft 437 kts 89°
2026-05-04 15:21 -23.58250 -45.73065 22654 ft 444 kts 89°
2026-05-04 15:22 -23.58129 -45.69661 23106 ft 448 kts 90°
2026-05-04 15:22 -23.58008 -45.66276 23553 ft 451 kts 90°
2026-05-04 15:22 -23.57760 -45.59407 24339 ft 456 kts 90°
2026-05-04 15:23 -23.57633 -45.55928 24813 ft 456 kts 90°
2026-05-04 15:23 -23.57507 -45.52496 25176 ft 457 kts 90°
2026-05-04 15:23 -23.57380 -45.49048 25175 ft 456 kts 90°
2026-05-04 15:23 -23.57096 -45.45599 25183 ft 457 kts 81°
2026-05-04 15:24 -23.55705 -45.38836 25197 ft 459 kts 77°
2026-05-04 15:24 -23.54196 -45.32091 25190 ft 459 kts 77°
2026-05-04 15:25 -23.53451 -45.28686 25196 ft 459 kts 78°
2026-05-04 15:25 -23.52965 -45.26434 25195 ft 459 kts 78°
2026-05-04 15:25 -23.52246 -45.23070 25205 ft 459 kts 78°
2026-05-04 15:26 -23.50824 -45.16388 25179 ft 441 kts 78°
2026-05-04 15:26 -23.50136 -45.13153 25185 ft 434 kts 78°
2026-05-04 15:26 -23.48771 -45.06749 25133 ft 435 kts 78°
2026-05-04 15:27 -23.48089 -45.03554 24788 ft 434 kts 78°
2026-05-04 15:27 -23.46729 -44.97205 24041 ft 428 kts 78°
2026-05-04 15:28 -23.45365 -44.90930 23162 ft 423 kts 77°
2026-05-04 15:28 -23.44672 -44.87814 22737 ft 420 kts 77°
2026-05-04 15:28 -23.43310 -44.81711 21903 ft 413 kts 77°
2026-05-04 15:29 -23.42633 -44.78677 21508 ft 410 kts 77°
2026-05-04 15:30 -23.39970 -44.66731 19894 ft 401 kts 76°
2026-05-04 15:30 -23.38009 -44.57959 18673 ft 397 kts 76°
2026-05-04 15:31 -23.36707 -44.52149 17859 ft 392 kts 76°
2026-05-04 15:31 -23.36074 -44.49325 17546 ft 385 kts 76°
2026-05-04 15:32 -23.34039 -44.40885 16243 ft 380 kts 67°
2026-05-04 15:32 -23.31820 -44.35709 15518 ft 373 kts 63°
2026-05-04 15:33 -23.29558 -44.30678 14760 ft 368 kts 64°
2026-05-04 15:34 -23.26299 -44.23196 13542 ft 363 kts 64°
2026-05-04 15:34 -23.25225 -44.20705 13145 ft 360 kts 64°
2026-05-04 15:34 -23.23123 -44.15822 12370 ft 354 kts 64°
2026-05-04 15:35 -23.21031 -44.10971 11446 ft 354 kts 64°
2026-05-04 15:35 -23.19994 -44.08570 11071 ft 351 kts 64°
2026-05-04 15:35 -23.18945 -44.06219 10866 ft 343 kts 62°
2026-05-04 15:36 -23.16851 -44.01694 10481 ft 328 kts 62°
2026-05-04 15:36 -23.15837 -43.99500 10310 ft 320 kts 62°
2026-05-04 15:36 -23.14890 -43.97353 10130 ft 313 kts 64°
2026-05-04 15:37 -23.13980 -43.95219 9959 ft 306 kts 64°
2026-05-04 15:37 -23.13107 -43.93158 9787 ft 300 kts 64°
2026-05-04 15:37 -23.12243 -43.91121 9630 ft 293 kts 64°
2026-05-04 15:37 -23.11389 -43.89114 9470 ft 291 kts 64°
2026-05-04 15:38 -23.10532 -43.87105 9324 ft 291 kts 64°
2026-05-04 15:38 -23.09683 -43.85121 9175 ft 291 kts 63°
2026-05-04 15:38 -23.08829 -43.83126 9018 ft 292 kts 63°
2026-05-04 15:38 -23.07976 -43.81132 8865 ft 292 kts 63°
2026-05-04 15:39 -23.07123 -43.79142 8705 ft 292 kts 63°
2026-05-04 15:39 -23.06274 -43.77160 8556 ft 291 kts 63°
2026-05-04 15:39 -23.04558 -43.73163 8243 ft 291 kts 63°
2026-05-04 15:40 -23.03708 -43.71181 8075 ft 284 kts 63°
2026-05-04 15:40 -23.02884 -43.69267 7870 ft 280 kts 63°
2026-05-04 15:40 -23.02056 -43.67372 7626 ft 278 kts 63°
2026-05-04 15:40 -23.01225 -43.65475 7376 ft 276 kts 63°
2026-05-04 15:41 -23.00955 -43.64858 7300 ft 275 kts 63°
2026-05-04 15:41 -23.00380 -43.63545 7135 ft 275 kts 63°
2026-05-04 15:41 -22.99557 -43.61668 6932 ft 274 kts 63°
2026-05-04 15:41 -22.98738 -43.59805 6769 ft 271 kts 63°
2026-05-04 15:42 -22.97941 -43.57994 6621 ft 267 kts 62°
2026-05-04 15:42 -22.97140 -43.56176 6431 ft 263 kts 63°
2026-05-04 15:42 -22.96373 -43.54424 6304 ft 255 kts 62°
2026-05-04 15:42 -22.95618 -43.52713 6153 ft 245 kts 62°
2026-05-04 15:43 -22.94905 -43.51091 5971 ft 236 kts 62°
2026-05-04 15:43 -22.94216 -43.49478 5753 ft 231 kts 63°
2026-05-04 15:43 -22.93562 -43.47929 5508 ft 220 kts 62°
2026-05-04 15:43 -22.92946 -43.46471 5316 ft 209 kts 63°
2026-05-04 15:44 -22.92351 -43.45057 5156 ft 199 kts 62°
2026-05-04 15:44 -22.91791 -43.43731 4938 ft 192 kts 62°
2026-05-04 15:44 -22.91240 -43.42439 4697 ft 185 kts 62°
2026-05-04 15:44 -22.90709 -43.41188 4500 ft 178 kts 62°
2026-05-04 15:45 -22.90211 -43.40010 4341 ft 172 kts 64°
2026-05-04 15:45 -22.89719 -43.38832 4148 ft 169 kts 63°
2026-05-04 15:45 -22.89226 -43.37684 4021 ft 167 kts 63°
2026-05-04 15:45 -22.88747 -43.36515 3813 ft 171 kts 63°
2026-05-04 15:46 -22.88246 -43.35347 3663 ft 167 kts 65°
2026-05-04 15:46 -22.87847 -43.34181 3442 ft 161 kts 69°
2026-05-04 15:46 -22.87489 -43.33051 3256 ft 158 kts 69°
2026-05-04 15:46 -22.87138 -43.31949 3070 ft 149 kts 70°
2026-05-04 15:47 -22.86800 -43.30890 2957 ft 149 kts 69°
2026-05-04 15:47 -22.86482 -43.29929 2783 ft 144 kts 69°
2026-05-04 15:47 -22.86133 -43.28853 2630 ft 144 kts 70°
2026-05-04 15:47 -22.85811 -43.27858 2440 ft 139 kts 72°
2026-05-04 15:48 -22.85511 -43.26862 2327 ft 142 kts 74°
2026-05-04 15:48 -22.85565 -43.25777 2127 ft 145 kts 101°
2026-05-04 15:48 -22.85878 -43.23639 1759 ft 143 kts 97°
2026-05-04 15:49 -22.86035 -43.22573 1531 ft 142 kts 98°
2026-05-04 15:49 -22.86181 -43.21519 1315 ft 141 kts 97°
2026-05-04 15:49 -22.86321 -43.20514 1130 ft 136 kts 97°
2026-05-04 15:49 -22.86457 -43.19501 989 ft 140 kts 97°
2026-05-04 15:50 -22.86596 -43.18459 884 ft 142 kts 103°
2026-05-04 15:50 -22.87028 -43.17476 795 ft 148 kts 125°
2026-05-04 15:50 -22.87780 -43.16731 657 ft 148 kts 149°
2026-05-04 15:50 -22.88751 -43.16419 398 ft 146 kts 173°
2026-05-04 15:51 -22.89751 -43.16368 182 ft 141 kts 175°
2026-05-04 15:51 -22.90675 -43.16297 25 ft 128 kts 175°
2026-05-04 15:51 -22.91191 -43.16273 20 ft 43 kts 176°
2026-05-04 15:51 -22.91335 -43.16297 20 ft 15 kts 240°
2026-05-04 15:52 -22.91347 -43.16391 20 ft 7 kts 266°
2026-05-04 15:52 -22.91349 -43.16434 21 ft 4 kts 266°
2026-05-04 15:52 -22.91350 -43.16455 21 ft 3 kts 266°
2026-05-04 15:52 -22.91350 -43.16474 21 ft 3 kts 273°
2026-05-04 15:53 -22.91332 -43.16502 22 ft 8 kts 332°
2026-05-04 15:53 -22.91294 -43.16509 24 ft 4 kts 347°
2026-05-04 15:53 -22.91282 -43.16533 21 ft 4 kts 281°
2026-05-04 15:53 -22.91281 -43.16561 21 ft 4 kts 268°
2026-05-04 15:54 -22.91281 -43.16579 21 ft 0 kts 269°